* Astronomy

Members Login
Post Info TOPIC: SL-4 rocket body re-entry


L

Posts: 131433
Date:
RE: SL-4 rocket body re-entry
Permalink  
 


Update
The SL-4 rocket body re-entered the Earths atmosphere on the 29th April, 2011 @ 12:42 GMT  ± 1 minute.

Inclination: 51.61°
Revolution Number: 35
Predicted Location:  21°S, 200°E



__________________


L

Posts: 131433
Date:
Permalink  
 

Update
The SL-4 rocket body is predicted to re-enter the Earths atmosphere on the 29th April, 2011 @ 12:47 GMT  ± 2 hours.

SL-4 RB
1 37397U 11017B 11119.37394079 .14864195 12638-4 32335-3 0 211
2 37397 051.6086 051.1340 0007743 058.1518 302.4232 16.46164283 276

Period:       88.35 minutes
Inclination: 51.61°
Apogee:     208 km
Perigee:     177 km
Revolution Number: 35
Predicted Location:  21.8°S, 200.8°E



__________________


L

Posts: 131433
Date:
Permalink  
 

Update
The SL-4 rocket body is predicted to re-enter the Earths atmosphere on the 29th April, 2011 @ 12:48 GMT  ± 4 hours.

SL-4 RB
1 37397U 11017B 11119.37394079 .14864195 12638-4 32335-3 0 211
2 37397 051.6086 051.1340 0007743 058.1518 302.4232 16.46164283 276

Period:       88.35 minutes
Inclination: 51.61°
Apogee:     208 km
Perigee:     177 km
Revolution Number: 34
Predicted Location:  25.8°S, 204.5°E



__________________


L

Posts: 131433
Date:
Permalink  
 

Update
The SL-4 rocket body is predicted to re-enter the Earths atmosphere on the 29th April, 2011 @ 13:05 GMT  ± 8 hours.

SL-4 RB
1 37397U 11017B 11119.19146708 .10068126 12521-4 62449-3 0 200
2 37397 051.6086 052.1707 0010610 057.3810 302.8205 16.41021129 244

Period:       88.35 minutes
Inclination: 51.61°
Apogee:     208 km
Perigee:     177 km
Revolution Number: 33
Predicted Location:  50°S, 287.8°E



__________________


L

Posts: 131433
Date:
Permalink  
 

Update
The SL-4 rocket body is predicted to re-enter the Earths atmosphere on the 29th April, 2011 @ 14:21 GMT  ± 15 hours.

SL-4 RB
1 37397U 11017B 11118.51954066 .03843194 00000-0 64901-3 0 128
2 37397 051.6046 055.9893 0015668 061.4302 298.9562 16.31911837 139

Period:       88.35 minutes
Inclination: 51.61°
Apogee:     208 km
Perigee:     177 km
Revolution Number: 34
Predicted Location:  39.8°S, 199.6°E



__________________


L

Posts: 131433
Date:
Permalink  
 

A SL-4 rocket body that was launched on the 27th April, 2011, from the Baikonur Cosmodrome, Kazakhstan, for the Progress M-10M/42P mission is predicted to re-enter the Earths atmosphere on the 29th April, 2011 @ 06:38 GMT  ± 21 hours.

SL-4 RB
No Data

Period:       - minutes
Inclination: 51.7°
Apogee:     - km
Perigee:     - km
Revolution Number: 29
Predicted Location:  33.8°N, 244.6°E



__________________
Page 1 of 1  sorted by
 
Quick Reply

Please log in to post quick replies.



Create your own FREE Forum
Report Abuse
Powered by ActiveBoard